Cumberland, WI

1:49 PM CST on November 21, 2017 (GMT -0600)
Cumberland Municipal

Weather History for KUBE - January, 2013

Change the Weather History Date:

Thursday, January 24, 2013

  Actual Average (KRPD) Record (KRPD)
Temperature  
Mean Temperature -2 °F -  
Max Temperature 8 °F 20 °F 37 °F (2015)
Min Temperature -13 °F 4 °F -6 °F (2014)
Degree Days  
Heating Degree Days 68    
Moisture  
Dew Point -10 °F    
Average Humidity 70    
Maximum Humidity 85    
Minimum Humidity 61    
Precipitation  
Precipitation 0.00 in - - ()
Sea Level Pressure  
Sea Level Pressure 30.46 in    
Wind  
Wind Speed 7 mph (ESE)    
Max Wind Speed 13 mph    
Max Gust Speed 18 mph    
Visibility 10 miles    
Events Snow    
Averages and records for this station are not official NWS values.
T = Trace of Precipitation, MM = Missing Value Source: NWS Daily Summary

Daily Weather History Graph

Daily Weather History Graph

Search for Another Location

Airport or City:

Trip Planner

Search our weather history database for the weather conditions in past years. The results will help you decide how hot, cold, wet, or windy it might be!

Date:

Astronomy

Jan. 24, 2013 Rise Set
Actual Time 7:37 AM CST 5:03 PM CST
Civil Twilight 7:04 AM CST 5:35 PM CST
Nautical Twilight 6:28 AM CST 6:11 PM CST
Astronomical Twilight 5:53 AM CST 6:46 PM CST
Moon 3:04 PM CST (1/24) 5:36 AM CST (1/24)
Length of Visible Light 10h 30m
Length of Day
9h 26m
Waxing Gibbous, 94% of the Moon is Illuminated
Jan 24
Waxing Gibbous
Jan 26
Full
Feb 3
Last Quarter
Feb 10
New
Feb 17
First Quarter

Hourly Weather History & Observations

Time (CST) Temp. Windchill Dew Point Humidity Pressure Visibility Wind Dir Wind Speed Gust Speed Precip Events Conditions
12:15 AM -9.4 °F -28.9 °F -18.4 °F 65% 30.52 in 10.0 mi NNW 11.5 mph - N/A   Clear
12:35 AM -9.4 °F -29.8 °F -18.4 °F 65% 30.53 in 10.0 mi NNW 12.7 mph - N/A   Clear
12:55 AM -9.4 °F -27.9 °F -18.4 °F 65% 30.53 in 10.0 mi NNW 10.4 mph - N/A   Clear
1:15 AM -9.4 °F -25.6 °F -18.4 °F 65% 30.54 in 10.0 mi NNW 8.1 mph - N/A   Clear
1:35 AM -9.4 °F -26.8 °F -18.4 °F 65% 30.54 in 10.0 mi North 9.2 mph - N/A   Clear
1:55 AM -11.2 °F -24.8 °F -18.4 °F 70% 30.54 in 10.0 mi North 5.8 mph - N/A   Clear
2:15 AM -11.2 °F -24.8 °F -18.4 °F 70% 30.55 in 10.0 mi North 5.8 mph - N/A   Clear
2:35 AM -11.2 °F -24.8 °F -18.4 °F 70% 30.55 in 10.0 mi North 5.8 mph - N/A   Clear
2:55 AM -11.2 °F -23.0 °F -18.4 °F 70% 30.55 in 10.0 mi North 4.6 mph - N/A   Clear
3:15 AM -11.2 °F -23.0 °F -18.4 °F 70% 30.56 in 10.0 mi North 4.6 mph - N/A   Clear
3:35 AM -11.2 °F -23.0 °F -18.4 °F 70% 30.57 in 10.0 mi NNW 4.6 mph - N/A   Clear
3:55 AM -11.2 °F -23.0 °F -18.4 °F 70% 30.57 in 10.0 mi NW 4.6 mph - N/A   Clear
4:15 AM -11.2 °F -23.0 °F -18.4 °F 70% 30.58 in 10.0 mi NNW 4.6 mph - N/A   Clear
4:35 AM -13.0 °F -22.7 °F -18.4 °F 77% 30.58 in 10.0 mi NNW 3.5 mph - N/A   Clear
4:55 AM -13.0 °F -22.7 °F -18.4 °F 77% 30.57 in 10.0 mi NW 3.5 mph - N/A   Clear
5:15 AM -11.2 °F -24.8 °F -18.4 °F 70% 30.58 in 10.0 mi NNW 5.8 mph - N/A   Clear
5:35 AM -11.2 °F -20.6 °F -18.4 °F 70% 30.57 in 10.0 mi North 3.5 mph - N/A   Clear
5:55 AM -13.0 °F -22.7 °F -18.4 °F 77% 30.57 in 10.0 mi North 3.5 mph - N/A   Clear
6:15 AM -13.0 °F - -18.4 °F 77% 30.58 in 10.0 mi Calm Calm - N/A   Clear
6:35 AM -13.0 °F - -18.4 °F 77% 30.58 in 10.0 mi Calm Calm - N/A   Clear
6:55 AM -11.2 °F - -18.4 °F 70% 30.59 in 10.0 mi Calm Calm - N/A   Clear
7:15 AM -11.2 °F - -18.4 °F 70% 30.60 in 10.0 mi Calm Calm - N/A   Clear
7:35 AM -11.2 °F - -18.4 °F 70% 30.60 in 10.0 mi Calm Calm - N/A   Clear
7:55 AM -11.2 °F - -18.4 °F 70% 30.60 in 10.0 mi Calm Calm - N/A   Clear
8:15 AM -9.4 °F - -16.6 °F 71% 30.59 in 10.0 mi Calm Calm - N/A   Clear
8:35 AM -9.4 °F - -16.6 °F 71% 30.59 in 10.0 mi Calm Calm - N/A   Clear
8:55 AM -9.4 °F - -16.6 °F 71% 30.58 in 10.0 mi Calm Calm - N/A   Clear
9:15 AM -9.4 °F - -16.6 °F 71% 30.58 in 10.0 mi Calm Calm - N/A   Clear
9:35 AM -9.4 °F - -14.8 °F 77% 30.57 in 10.0 mi Calm Calm - N/A   Clear
9:55 AM -7.6 °F - -14.8 °F 71% 30.57 in 10.0 mi Calm Calm - N/A   Clear
10:15 AM -5.8 °F - -13.0 °F 71% 30.57 in 10.0 mi Calm Calm - N/A   Clear
10:35 AM -5.8 °F -19.9 °F -13.0 °F 71% 30.57 in 10.0 mi SE 6.9 mph - N/A   Clear
10:55 AM -4.0 °F -14.6 °F -13.0 °F 65% 30.57 in 10.0 mi SSE 4.6 mph - N/A   Clear
11:15 AM -4.0 °F -19.0 °F -11.2 °F 71% 30.56 in 10.0 mi SE 8.1 mph - N/A   Clear
11:35 AM -4.0 °F -17.8 °F -9.4 °F 78% 30.55 in 10.0 mi SE 6.9 mph - N/A   Clear
11:55 AM -2.2 °F -14.2 °F -9.4 °F 71% 30.55 in 10.0 mi SSE 5.8 mph - N/A   Clear
12:15 PM -0.4 °F -12.0 °F -9.4 °F 66% 30.54 in 10.0 mi SSE 5.8 mph - N/A   Scattered Clouds
12:35 PM -0.4 °F -10.4 °F -7.6 °F 72% 30.53 in 10.0 mi SSE 4.6 mph - N/A   Mostly Cloudy
12:55 PM -0.4 °F -8.3 °F -7.6 °F 72% 30.52 in 10.0 mi SSE 3.5 mph - N/A   Scattered Clouds
1:15 PM 1.4 °F -6.2 °F -7.6 °F 66% 30.50 in 10.0 mi SSE 3.5 mph - N/A   Clear
1:35 PM 1.4 °F -9.9 °F -7.6 °F 66% 30.49 in 10.0 mi South 5.8 mph - N/A   Clear
1:55 PM 1.4 °F -8.3 °F -7.6 °F 66% 30.48 in 10.0 mi SSE 4.6 mph - N/A   Clear
2:15 PM 3.2 °F -7.8 °F -5.8 °F 66% 30.47 in 10.0 mi SE 5.8 mph - N/A   Scattered Clouds
2:35 PM 3.2 °F -7.8 °F -5.8 °F 66% 30.47 in 10.0 mi SE 5.8 mph - N/A   Mostly Cloudy
2:55 PM 3.2 °F -9.1 °F -5.8 °F 66% 30.45 in 10.0 mi SE 6.9 mph - N/A   Mostly Cloudy
3:15 PM 3.2 °F -9.1 °F -7.6 °F 61% 30.44 in 10.0 mi SSE 6.9 mph - N/A   Overcast
3:35 PM 3.2 °F -7.8 °F -5.8 °F 66% 30.42 in 10.0 mi ESE 5.8 mph - N/A   Overcast
3:55 PM 3.2 °F -10.3 °F -5.8 °F 66% 30.41 in 10.0 mi SE 8.1 mph - N/A   Overcast
4:15 PM 3.2 °F -10.3 °F -5.8 °F 66% 30.40 in 10.0 mi SSE 8.1 mph - N/A   Overcast
4:35 PM 3.2 °F -11.3 °F -7.6 °F 61% 30.39 in 10.0 mi SE 9.2 mph - N/A   Overcast
4:55 PM 3.2 °F -10.3 °F -5.8 °F 66% 30.37 in 10.0 mi ESE 8.1 mph - N/A   Overcast
5:15 PM 3.2 °F -10.3 °F -5.8 °F 66% 30.37 in 10.0 mi SE 8.1 mph - N/A   Overcast
5:35 PM 3.2 °F -10.3 °F -5.8 °F 66% 30.36 in 10.0 mi SE 8.1 mph - N/A   Overcast
5:55 PM 3.2 °F -10.3 °F -5.8 °F 66% 30.34 in 4.0 mi SE 8.1 mph - N/A Snow Light Snow
6:15 PM 3.2 °F -12.2 °F -4.0 °F 72% 30.33 in 4.0 mi SE 10.4 mph - N/A Snow Light Snow
6:35 PM 3.2 °F -12.2 °F -2.2 °F 78% 30.31 in 2.5 mi SE 10.4 mph - N/A Snow Light Snow
6:55 PM 3.2 °F -13.1 °F -2.2 °F 78% 30.30 in 10.0 mi SE 11.5 mph - N/A   Overcast
7:35 PM 3.2 °F -11.3 °F -0.4 °F 85% 30.29 in 10.0 mi SE 9.2 mph - N/A   Overcast
7:55 PM 5.0 °F -10.8 °F -0.4 °F 78% 30.27 in 10.0 mi SE 11.5 mph - N/A   Overcast
8:15 PM 5.0 °F -10.0 °F -0.4 °F 78% 30.25 in 10.0 mi SE 10.4 mph - N/A   Overcast
8:35 PM 5.0 °F -10.8 °F -0.4 °F 78% 30.25 in 10.0 mi SE 11.5 mph 18.4 mph N/A   Overcast
8:55 PM 5.0 °F -6.9 °F -0.4 °F 78% 30.24 in 10.0 mi SE 6.9 mph - N/A   Overcast
9:15 PM 5.0 °F -10.0 °F -0.4 °F 78% 30.21 in 10.0 mi SE 10.4 mph - N/A   Overcast
9:35 PM 5.0 °F -10.0 °F -0.4 °F 78% 30.21 in 10.0 mi SE 10.4 mph - N/A   Overcast
9:55 PM 6.8 °F -7.8 °F -0.4 °F 72% 30.21 in 10.0 mi SSE 10.4 mph - N/A   Overcast
10:15 PM 6.8 °F -7.8 °F -0.4 °F 72% 30.21 in 10.0 mi SE 10.4 mph - N/A   Overcast
10:35 PM 6.8 °F -6.9 °F -0.4 °F 72% 30.21 in 10.0 mi SE 9.2 mph - N/A   Overcast
10:55 PM 8.6 °F -7.0 °F -0.4 °F 67% 30.20 in 10.0 mi SE 12.7 mph - N/A Snow Light Snow
11:15 PM 8.6 °F -5.5 °F -0.4 °F 67% 30.19 in 10.0 mi SSE 10.4 mph - N/A   Overcast
11:35 PM 8.6 °F -5.5 °F -0.4 °F 67% 30.18 in 10.0 mi SSE 10.4 mph - N/A   Overcast
11:55 PM 8.6 °F -7.0 °F -0.4 °F 67% 30.16 in 10.0 mi SSE 12.7 mph - N/A   Overcast